EW9394 Weather Reports


time (UTC)temp
C
wind
direction
speed
KPH
gust
KPH
rain 1hr
cm
rain 24hr
cm
rain mn
cm
humidity
%
barometer
mb
20260506002433 27 306 4.8 4.8 0.00 0.00 0.00 64 1006.5
20260506001929 27 340 6.4 8.0 0.00 0.00 0.00 64 1006.7
20260506001426 27 258 4.8 4.8 0.00 0.00 0.00 64 1007.0
20260506000923 28 8 4.8 8.0 0.00 0.00 0.00 62 1006.5
20260506000423 28 266 1.6 4.8 0.00 0.00 0.00 61 1006.5
20260505235917 28 8 4.8 4.8 0.00 0.00 0.00 58 1006.1
20260505235415 28 5 6.4 8.0 0.00 0.00 0.00 56 1006.0
20260505234912 28 235 3.2 3.2 0.00 0.00 0.00 59 1006.1
20260505234410 28 276 4.8 8.0 0.00 0.00 0.00 73 1006.1
20260505233906 29 279 6.4 11.3 0.00 0.00 0.00 72 1005.4
20260505233404 29 191 1.6 3.2 0.00 0.00 0.00 71 1005.4
20260505232901 30 165 3.2 3.2 0.00 0.00 0.00 70 1005.6
20260505232359 30 194 4.8 8.0 0.00 0.00 0.00 70 1005.2
20260505231855 30 175 4.8 8.0 0.00 0.00 0.00 68 1005.3
20260505231353 30 192 1.6 3.2 0.00 0.00 0.00 67 1005.5
20260505230851 30 194 4.8 4.8 0.00 0.00 0.00 67 1005.2
20260505230348 30 152 3.2 3.2 0.00 0.00 0.00 68 1005.3
20260505225844 30 198 1.6 1.6 0.00 0.00 0.00 68 1005.1
20260505225342 30 148 4.8 8.0 0.00 0.00 0.00 67 1005.1
20260505224837 30 211 3.2 3.2 0.00 0.00 0.00 67 1005.1
20260505224335 30 170 4.8 4.8 0.00 0.00 0.00 66 1005.0
20260505223832 30 192 1.6 3.2 0.00 0.00 0.00 66 1005.4
20260505223329 31 209 1.6 3.2 0.00 0.00 0.00 64 1004.8
20260505222824 31 191 6.4 9.7 0.00 0.00 0.00 63 1004.8
20260505222321 31 202 6.4 9.7 0.00 0.00 0.00 62 1005.1
20260505221818 32 194 1.6 1.6 0.00 0.00 0.00 60 1005.1
20260505221315 32 190 1.6 1.6 0.00 0.00 0.00 59 1005.1
20260505220812 32 220 3.2 4.8 0.00 0.00 0.00 56 1005.1
20260505220309 32 235 1.6 1.6 0.00 0.00 0.00 54 1004.9
20260505215807 32 157 4.8 4.8 0.00 0.00 0.00 54 1005.0
20260505215305 32 170 4.8 4.8 0.00 0.00 0.00 53 1005.0
20260505214802 33 195 1.6 1.6 0.00 0.00 0.00 53 1004.8
20260505214259 33 215 4.8 9.7 0.00 0.00 0.00 54 1005.0
20260505213756 33 248 8.0 11.3 0.00 0.00 0.00 54 1005.2
20260505213254 33 261 6.4 9.7 0.00 0.00 0.00 54 1005.3
20260505212749 33 242 1.6 1.6 0.00 0.00 0.00 54 1005.2
20260505212247 32 186 3.2 3.2 0.00 0.00 0.00 54 1005.2
20260505211743 32 186 3.2 3.2 0.00 0.00 0.00 54 1005.4
20260505211241 32 268 3.2 3.2 0.00 0.00 0.00 55 1005.3
20260505210737 32 256 4.8 8.0 0.00 0.00 0.00 56 1005.2
20260505210234 32 209 1.6 3.2 0.00 0.00 0.00 56 1005.4
20260505205732 32 192 3.2 4.8 0.00 0.00 0.00 56 1005.4
20260505205230 32 281 3.2 4.8 0.00 0.00 0.00 57 1005.2
20260505204726 32 206 3.2 4.8 0.00 0.00 0.00 58 1005.5
20260505204224 32 165 3.2 3.2 0.00 0.00 0.00 58 1005.8
20260505203721 32 205 12.9 14.5 0.00 0.00 0.00 58 1006.0
20260505203218 32 174 4.8 4.8 0.00 0.00 0.00 59 1005.8
20260505202713 31 156 11.3 14.5 0.00 0.00 0.00 60 1005.9
20260505202210 31 197 3.2 4.8 0.00 0.00 0.00 63 1005.9
20260505201706 31 196 4.8 8.0 0.00 0.00 0.00 63 1006.0
20260505201204 30 183 3.2 4.8 0.00 0.00 0.00 63 1005.8
20260505200702 30 186 9.7 16.1 0.00 0.00 0.00 64 1006.2
20260505200159 31 192 1.6 3.2 0.00 0.00 0.00 63 1006.3
20260505195654 30 201 12.9 12.9 0.00 0.00 0.00 64 1006.1
20260505195152 30 180 6.4 8.0 0.00 0.00 0.00 64 1006.1
20260505194649 31 246 6.4 11.3 0.00 0.00 0.00 64 1006.2
20260505194145 31 187 3.2 4.8 0.00 0.00 0.00 64 1006.4
20260505193642 30 232 6.4 9.7 0.00 0.00 0.00 66 1006.3
20260505193139 30 203 1.6 3.2 0.00 0.00 0.00 68 1006.2
20260505192638 30 172 8.0 11.3 0.00 0.00 0.00 67 1006.3
20260505192135 30 169 11.3 20.9 0.00 0.00 0.00 67 1006.3
20260505191633 30 179 9.7 14.5 0.00 0.00 0.00 67 1006.2
20260505191131 30 183 4.8 4.8 0.00 0.00 0.00 68 1006.1
20260505190626 28 200 1.6 1.6 0.00 0.00 0.00 70 1006.3
20260505190121 28 160 8.0 12.9 0.00 0.00 0.00 69 1006.5
20260505185619 28 167 8.0 9.7 0.00 0.00 0.00 70 1006.2
20260505185115 28 160 11.3 17.7 0.00 0.00 0.00 69 1006.2
20260505184611 28 176 9.7 11.3 0.00 0.00 0.00 68 1006.4
20260505184108 28 146 11.3 14.5 0.00 0.00 0.00 68 1006.6
20260505183605 28 217 1.6 3.2 0.00 0.00 0.00 70 1006.5
20260505183103 28 223 4.8 9.7 0.00 0.00 0.00 69 1006.4
20260505182558 28 193 8.0 9.7 0.00 0.00 0.00 69 1006.6
20260505182055 28 173 8.0 11.3 0.00 0.00 0.00 69 1006.7
20260505181552 28 214 4.8 4.8 0.00 0.00 0.00 70 1006.5
20260505181049 28 237 1.6 3.2 0.00 0.00 0.00 70 1006.5
20260505180545 28 202 11.3 16.1 0.00 0.00 0.00 69 1006.6
20260505180044 28 158 12.9 16.1 0.00 0.00 0.00 70 1006.6
20260505175543 28 176 4.8 8.0 0.00 0.00 0.00 69 1006.6
20260505175040 27 195 6.4 9.7 0.00 0.00 0.00 71 1006.5
20260505174538 28 229 9.7 16.1 0.00 0.00 0.00 70 1006.6
20260505174033 28 206 8.0 11.3 0.00 0.00 0.00 70 1006.6
20260505173530 28 187 3.2 3.2 0.00 0.00 0.00 71 1006.6
20260505173027 28 183 12.9 16.1 0.00 0.00 0.00 70 1006.7
20260505172525 28 179 3.2 4.8 0.00 0.00 0.00 69 1006.7
20260505172021 28 160 8.0 9.7 0.00 0.00 0.00 70 1006.8
20260505171516 27 230 8.0 11.3 0.00 0.00 0.00 72 1006.5
20260505171014 27 215 4.8 4.8 0.00 0.00 0.00 72 1006.7
20260505170510 27 119 9.7 12.9 0.00 0.00 0.00 71 1006.9
20260505170006 27 205 0.0 1.6 0.00 0.00 0.00 72 1006.8
20260505165502 27 179 4.8 9.7 0.00 0.00 0.00 71 1006.8
20260505164957 27 209 3.2 3.2 0.00 0.00 0.00 73 1006.5
20260505164448 27 140 3.2 4.8 0.00 0.00 0.00 72 1006.7
20260505163946 27 196 4.8 8.0 0.00 0.00 0.00 72 1006.6
20260505163444 27 194 4.8 11.3 0.00 0.00 0.00 72 1006.5
20260505162944 27 196 4.8 8.0 0.00 0.00 0.00 72 1006.6
20260505162439 27 298 6.4 9.7 0.00 0.00 0.00 72 1006.6
20260505161936 27 180 4.8 9.7 0.00 0.00 0.00 73 1006.6
20260505161432 26 171 6.4 11.3 0.00 0.00 0.00 73 1006.5
20260505160930 26 192 4.8 4.8 0.00 0.00 0.00 75 1006.5
20260505160428 26 161 11.3 16.1 0.00 0.00 0.00 73 1006.5
20260505152904 25 154 6.4 9.7 0.00 0.00 0.00 78 1006.6
20260505152402 25 196 8.0 12.9 0.00 0.00 0.00 79 1006.5
20260505151901 25 217 1.6 3.2 0.00 0.00 0.00 79 1006.7
20260505151358 25 192 8.0 11.3 0.00 0.00 0.00 80 1006.8
20260505150855 25 216 6.4 9.7 0.00 0.00 0.00 80 1006.8
20260505150352 24 199 3.2 4.8 0.00 0.00 0.00 81 1006.5
20260505140317 22 179 6.4 11.3 0.00 0.00 0.00 86 1006.4
20260505130240 22 203 11.3 16.1 0.00 0.00 0.00 88 1006.1
20260505124731 21 210 6.4 9.7 0.00 0.00 0.00 88 1006.4
20260505124228 21 175 8.0 12.9 0.00 0.00 0.00 88 1006.4
20260505123723 21 186 9.7 11.3 0.00 0.00 0.00 88 1006.1
20260505123220 21 202 6.4 9.7 0.00 0.00 0.00 88 1005.7
20260505122716 21 153 6.4 9.7 0.00 0.00 0.00 88 1005.7
20260505122214 21 183 6.4 9.7 0.00 0.00 0.00 89 1005.6
20260505121710 21 186 8.0 11.3 0.00 0.00 0.00 89 1006.0
20260505121207 21 196 8.0 9.7 0.00 0.00 0.00 88 1005.8
20260505120703 21 167 6.4 9.7 0.00 0.00 0.00 88 1005.8
20260505120159 21 167 8.0 12.9 0.00 0.00 0.00 88 1005.6
20260505115653 21 197 8.0 11.3 0.00 0.00 0.00 89 1005.7
20260505115151 21 173 11.3 16.1 0.00 0.00 0.00 89 1005.7
20260505114648 21 166 8.0 11.3 0.00 0.00 0.00 88 1005.7
20260505114144 21 150 12.9 14.5 0.00 0.00 0.00 88 1005.7
20260505113640 21 180 8.0 11.3 0.00 0.00 0.00 88 1005.5
20260505113137 21 192 6.4 9.7 0.00 0.00 0.00 88 1005.5
20260505112633 21 190 8.0 9.7 0.00 0.00 0.00 88 1005.4
20260505112132 21 194 3.2 3.2 0.00 0.00 0.00 88 1005.4
20260505111631 21 144 14.5 17.7 0.00 0.00 0.00 88 1005.7
20260505111127 21 192 9.7 14.5 0.00 0.00 0.00 88 1005.6
20260505110624 21 187 8.0 9.7 0.00 0.00 0.00 88 1005.6
20260505110121 21 209 4.8 8.0 0.00 0.00 0.00 88 1005.3
20260505102057 21 183 12.9 16.1 0.00 0.00 0.00 87 1005.5
20260505101555 21 193 12.9 16.1 0.00 0.00 0.00 87 1005.7
20260505101051 21 194 6.4 8.0 0.00 0.00 0.00 87 1005.4
20260505100548 21 153 4.8 4.8 0.00 0.00 0.00 87 1005.6
20260505100045 21 155 4.8 8.0 0.00 0.00 0.00 87 1005.5
20260505095541 21 181 8.0 9.7 0.00 0.00 0.00 87 1005.7
20260505095037 21 180 9.7 14.5 0.00 0.00 0.00 87 1005.7
20260505094534 21 192 12.9 17.7 0.00 0.00 0.00 87 1006.0
20260505094030 21 190 8.0 11.3 0.00 0.00 0.00 87 1005.9
20260505093527 21 191 11.3 16.1 0.00 0.00 0.00 87 1005.9
20260505093024 21 184 4.8 4.8 0.00 0.00 0.00 87 1005.8
20260505092521 21 170 8.0 11.3 0.00 0.00 0.00 87 1006.1
20260505092020 21 145 4.8 8.0 0.00 0.00 0.00 87 1006.0
20260505091516 21 195 6.4 9.7 0.00 0.00 0.00 87 1006.0
20260505091014 21 177 6.4 11.3 0.00 0.00 0.00 87 1006.2
20260505090512 21 219 3.2 4.8 0.00 0.00 0.00 88 1006.1
20260505090010 21 166 6.4 11.3 0.00 0.00 0.00 88 1006.0
20260505085508 21 130 12.9 20.9 0.00 0.00 0.00 88 1006.2
20260505085006 21 206 8.0 14.5 0.00 0.00 0.00 88 1006.2
20260505084503 21 193 4.8 14.5 0.00 0.00 0.00 88 1005.9
20260505084001 21 159 11.3 14.5 0.00 0.00 0.00 88 1006.0
20260505083458 21 211 9.7 11.3 0.00 0.00 0.00 88 1006.0
20260505082954 21 180 6.4 9.7 0.00 0.00 0.00 88 1006.2
20260505082450 21 178 12.9 17.7 0.00 0.00 0.00 88 1006.1
20260505081947 21 190 6.4 8.0 0.00 0.00 0.00 88 1006.3
20260505081444 21 159 6.4 9.7 0.00 0.00 0.00 87 1006.1
20260505080940 21 197 6.4 8.0 0.00 0.00 0.00 87 1006.2
20260505080437 21 179 11.3 16.1 0.00 0.00 0.00 87 1006.1
20260505075932 21 178 8.0 12.9 0.00 0.00 0.00 87 1006.2
20260505075429 21 152 11.3 14.5 0.00 0.00 0.00 87 1006.5
20260505074927 21 160 3.2 4.8 0.00 0.00 0.00 86 1006.4
20260505074424 21 191 8.0 11.3 0.00 0.00 0.00 86 1006.5
20260505073921 21 172 9.7 12.9 0.00 0.00 0.00 86 1006.7
20260505073419 21 170 4.8 8.0 0.00 0.00 0.00 86 1006.8
20260505072916 21 173 8.0 12.9 0.00 0.00 0.00 86 1006.9
20260505072412 22 169 4.8 8.0 0.00 0.00 0.00 85 1007.0
20260505071908 22 222 8.0 11.3 0.00 0.00 0.00 85 1006.9
20260505071404 22 179 11.3 14.5 0.00 0.00 0.00 85 1007.0
20260505070902 22 194 4.8 4.8 0.00 0.00 0.00 84 1006.7
20260505070358 22 163 4.8 8.0 0.00 0.00 0.00 84 1006.9
20260505065854 22 157 12.9 20.9 0.00 0.00 0.00 84 1007.1
20260505065351 22 158 12.9 17.7 0.00 0.00 0.00 83 1007.1
20260505064848 22 199 14.5 20.9 0.00 0.00 0.00 83 1007.2
20260505064345 22 214 17.7 27.4 0.00 0.00 0.00 83 1007.4
20260505063844 22 174 4.8 8.0 0.00 0.00 0.00 83 1007.2
20260505063339 22 181 8.0 14.5 0.00 0.00 0.00 83 1007.2
20260505062836 22 193 11.3 14.5 0.00 0.00 0.00 82 1007.3
20260505062333 22 178 8.0 11.3 0.00 0.00 0.00 82 1007.3
20260505061830 22 226 8.0 11.3 0.00 0.00 0.00 82 1007.3
20260505061328 22 166 6.4 9.7 0.00 0.00 0.00 82 1007.6
20260505060825 22 202 9.7 11.3 0.00 0.00 0.00 81 1007.3
20260505060322 22 153 6.4 9.7 0.00 0.00 0.00 81 1007.4
20260505055818 22 201 3.2 4.8 0.00 0.00 0.00 81 1007.4
20260505055314 22 204 9.7 12.9 0.00 0.00 0.00 81 1007.7
20260505054812 22 152 4.8 8.0 0.00 0.00 0.00 80 1007.4
20260505054309 22 178 4.8 4.8 0.00 0.00 0.00 80 1007.5
20260505053807 22 155 9.7 12.9 0.00 0.00 0.00 80 1007.6
20260505053303 22 189 8.0 9.7 0.00 0.00 0.00 80 1007.7
20260505052800 22 180 4.8 4.8 0.00 0.00 0.00 79 1007.8
20260505052257 22 235 8.0 8.0 0.00 0.00 0.00 79 1007.8
20260505051754 22 212 11.3 12.9 0.00 0.00 0.00 79 1007.8
20260505051252 22 117 8.0 14.5 0.00 0.00 0.00 78 1007.9
20260505050750 22 170 11.3 16.1 0.00 0.00 0.00 78 1007.8
20260505050248 22 216 9.7 14.5 0.00 0.00 0.00 78 1008.0
20260505041718 23 174 9.7 11.3 0.00 0.00 0.00 75 1008.1
20260505041215 23 163 6.4 8.0 0.00 0.00 0.00 75 1008.1
20260505040712 23 170 8.0 11.3 0.00 0.00 0.00 75 1007.9
20260505040204 23 193 4.8 4.8 0.00 0.00 0.00 74 1008.0
20260505035700 23 155 12.9 17.7 0.00 0.00 0.00 74 1008.0
20260505035156 23 83 3.2 8.0 0.00 0.00 0.00 74 1007.9
20260505034653 23 169 11.3 12.9 0.00 0.00 0.00 74 1007.8
20260505034151 23 189 4.8 4.8 0.00 0.00 0.00 74 1007.6
20260505033646 23 193 4.8 4.8 0.00 0.00 0.00 73 1007.7
20260505033145 23 174 11.3 16.1 0.00 0.00 0.00 73 1008.0
20260505032643 23 154 8.0 11.3 0.00 0.00 0.00 73 1007.9
20260505032138 23 160 3.2 3.2 0.00 0.00 0.00 73 1007.8
20260505031636 23 121 8.0 9.7 0.00 0.00 0.00 73 1008.0
20260505031132 23 215 3.2 4.8 0.00 0.00 0.00 73 1007.9
20260505030629 23 149 9.7 12.9 0.00 0.00 0.00 72 1007.9
20260505030125 23 173 3.2 3.2 0.00 0.00 0.00 72 1007.8
20260505025620 23 182 1.6 1.6 0.00 0.00 0.00 72 1008.1
20260505025120 23 219 6.4 9.7 0.00 0.00 0.00 72 1008.0
20260505024617 23 173 3.2 8.0 0.00 0.00 0.00 72 1007.9
20260505024114 23 182 4.8 4.8 0.00 0.00 0.00 72 1008.0
20260505023611 23 194 8.0 11.3 0.00 0.00 0.00 71 1007.8
20260505023109 23 168 4.8 4.8 0.00 0.00 0.00 72 1007.5
20260505022606 23 153 4.8 8.0 0.00 0.00 0.00 72 1007.5
20260505022103 23 198 4.8 8.0 0.00 0.00 0.00 71 1007.9
20260505021559 23 173 3.2 3.2 0.00 0.00 0.00 71 1007.7
20260505021056 24 149 6.4 9.7 0.00 0.00 0.00 71 1007.7
20260505020556 24 175 9.7 11.3 0.00 0.00 0.00 70 1007.7
20260505020053 24 202 11.3 16.1 0.00 0.00 0.00 71 1007.6
20260505015550 24 212 6.4 9.7 0.00 0.00 0.00 70 1007.8
20260505015047 24 143 4.8 11.3 0.00 0.00 0.00 70 1007.8
20260505014544 24 195 4.8 11.3 0.00 0.00 0.00 70 1007.6
20260505014041 24 167 3.2 4.8 0.00 0.00 0.00 69 1007.6
20260505013538 24 188 4.8 12.9 0.00 0.00 0.00 69 1007.8
20260505013036 24 172 9.7 14.5 0.00 0.00 0.00 69 1007.8
20260505012533 24 201 11.3 16.1 0.00 0.00 0.00 69 1007.9
20260505012030 25 171 3.2 4.8 0.00 0.00 0.00 68 1007.7
20260505011526 25 175 11.3 14.5 0.00 0.00 0.00 68 1007.6
20260505011023 25 190 9.7 12.9 0.00 0.00 0.00 68 1007.9
20260505010518 25 177 4.8 4.8 0.00 0.00 0.00 68 1007.6
20260505010015 25 176 11.3 16.1 0.00 0.00 0.00 67 1007.6
20260505005512 25 180 14.5 17.7 0.00 0.00 0.00 67 1007.5
20260505005009 25 159 11.3 16.1 0.00 0.00 0.00 67 1007.6
20260505004506 25 172 9.7 14.5 0.00 0.00 0.00 67 1007.7
20260505004003 25 174 4.8 4.8 0.00 0.00 0.00 66 1007.9
20260505003500 25 195 11.3 16.1 0.00 0.00 0.00 66 1008.0
20260505002956 25 177 8.0 12.9 0.00 0.00 0.00 66 1007.8